Regional Weather Roundup
Issued by NWS

Home | Current Version | Previous Version | Text Only | Print | Product List | Glossary Off
Versions: 1 2 3 4 5 6 7 8 9 10 11 12 13 14 15 16 17 18 19 20 21 22 23 24 25 26 27 28 29 30 31 32 33 34 35 36 37 38 39 40 41 42 43 44 45 46 47 48 49 50

932
ASUS43 KLSX 221710
RWRMO

WEATHER SUMMARY FOR MISSOURI
NATIONAL WEATHER SERVICE SPRINGFIELD MO
1100 AM CST WED FEB 22 2017

NOTE: "FAIR" INDICATES FEW OR NO CLOUDS BELOW 12,000 FEET WITH NO
       SIGNIFICANT WEATHER AND/OR OBSTRUCTIONS TO VISIBILITY.
       CURRENT SKY AND/OR WEATHER CONDITIONS ARE NOT AVAILABLE FOR
       CHILLICOTHE AND FARMINGTON.

MOZ001>031-035>038-043-044-053-054-221800-
...NORTHERN AND WESTERN MISSOURI...

CITY           SKY/WX    TMP DP  RH WIND       PRES   REMARKS
KANSAS CTY INT PTSUNNY   67  36  31 S16G29    29.72F
KANSAS C DTWN  PTSUNNY   66  43  43 S18       29.73S
LEE`S SUMMIT   MOSUNNY   63  48  58 S13G25    29.76F
ST JOSEPH      SUNNY     71  35  26 SW22      29.69F
CHILLICOTHE      N/A     66  46  48 S18G26    29.73F
KIRKSVILLE     SUNNY     64  51  62 SW13      29.75F

$$
MOZ066>068-077>081-088>096-101>105-221800-
...SOUTHWEST MISSOURI...

CITY           SKY/WX    TMP DP  RH WIND       PRES   REMARKS
SPRINGFIELD    CLOUDY    57  55  93 S12       29.86F FOG
JOPLIN         SUNNY     65  55  70 S10       29.85F
BRANSON        CLOUDY    57  55  94 CALM      29.89F FOG

$$
MOZ032>034-039>042-045>050-055>058-069>072-221800-
...CENTRAL MISSOURI...

CITY           SKY/WX    TMP DP  RH WIND       PRES   REMARKS
COLUMBIA       CLOUDY    56  56 100 SW9       29.82S FOG
JEFFERSON CITY CLOUDY    56  55  97 S8        29.82F
ROLLA          CLOUDY    55  55 100 S12       29.84F
SEDALIA        SUNNY     63  55  75 SW15G22   29.81F
WHITEMAN AFB   PTSUNNY   62  62  99 S18       29.78F
WARRENSBURG    PTSUNNY   61  52  72 S15G23    29.78F
OSAGE BEACH    CLOUDY    56  55  97 S8        29.84F

$$
MOZ051-052-059>065-221800-
...EAST CENTRAL MISSOURI...

CITY           SKY/WX    TMP DP  RH WIND       PRES   REMARKS
ST LOUIS INTL  CLOUDY    59  55  87 SW7       29.84F
SPIRIT OF STL  CLOUDY    58  56  93 SW8       29.84F
ST CHARLES     CLOUDY    56  56 100 SW6       29.84S FOG

$$
MOZ072>076-082>087-097>100-106>115-221800-
...SOUTH CENTRAL AND SOUTHEAST MISSOURI...

CITY           SKY/WX    TMP DP  RH WIND       PRES   REMARKS
CAPE GIRARDEAU PTSUNNY   66  56  70 SE7       29.87F
FARMINGTON     SUNNY     66  56  70 S8        29.85F
POPLAR BLUFF   CLOUDY    64  58  80 S5        29.88R
WEST PLAINS    MOSUNNY   62  55  77 VRB7      29.89S

$$




USA.gov is the U.S. government's official web portal to all federal, state and local government web resources and services.